Weather History for Monroe, MI

Change the Weather History Date:

Friday, October 18, 2013

  Actual Average Record
Temperature  
Mean Temperature 54 °F -  
Max Temperature 66 °F 59 °F 84 °F (1938)
Min Temperature 42 °F 40 °F 25 °F (1977)
Degree Days  
Heating Degree Days 11    
Growing Degree Days 4 (Base 50)    
Moisture  
Dew Point 44 °F    
Average Humidity 74    
Maximum Humidity 100    
Minimum Humidity 37    
Precipitation  
Precipitation 0.00 in - - ()
Sea Level Pressure  
Sea Level Pressure 29.88 in    
Wind  
Wind Speed 8 mph (WSW)    
Max Wind Speed 17 mph    
Max Gust Speed 26 mph    
Visibility 9 miles    
Events      
Averages and records for this station are not official NWS values.
T = Trace of Precipitation, MM = Missing Value Source: NWS Daily Summary

Daily Weather History Graph

Daily Weather History Graph

Search for Another Location

Airport:

Trip Planner

Search our weather history database for the weather conditions in past years. The results will help you decide how hot, cold, wet, or windy it might be!

Date:

Astronomy

Oct. 18, 2013 Rise Set
Actual Time 7:49 AM EDT 6:47 PM EDT
Civil Twilight 7:21 AM EDT 7:15 PM EDT
Nautical Twilight 6:49 AM EDT 7:47 PM EDT
Astronomical Twilight 6:16 AM EDT 8:19 PM EDT
Moon 6:36 PM EDT (10/18) 7:24 AM EDT (10/18)
Length of Visible Light 11h 53m
Length of Day
10h 57m
Full, 100% of the Moon is Illuminated
Oct 18
Full
Oct 18
Full
Oct 26
Last Quarter
Nov 3
New
Nov 10
First Quarter

Hourly Weather History & Observations

Time (EDT) Temp. Windchill Dew Point Humidity Pressure Visibility Wind Dir Wind Speed Gust Speed Precip Events Conditions
12:12 AM 51.8 °F - 48.2 °F 88% 29.86 in 10.0 mi WSW 10.4 mph - N/A   Overcast
12:32 AM 51.8 °F - 48.2 °F 88% 29.85 in 10.0 mi West 8.1 mph - N/A   Overcast
12:52 AM 51.8 °F - 48.2 °F 88% 29.86 in 10.0 mi WSW 9.2 mph - N/A   Overcast
1:12 AM 51.8 °F - 48.2 °F 88% 29.86 in 10.0 mi WSW 9.2 mph - N/A   Overcast
1:32 AM 51.8 °F - 48.2 °F 88% 29.86 in 10.0 mi WSW 8.1 mph - N/A   Overcast
1:52 AM 51.8 °F - 48.2 °F 88% 29.87 in 10.0 mi WSW 6.9 mph - N/A   Overcast
2:12 AM 51.8 °F - 48.2 °F 88% 29.87 in 10.0 mi WSW 6.9 mph - N/A   Overcast
2:32 AM 50.0 °F - 46.4 °F 87% 29.88 in 10.0 mi WSW 6.9 mph - N/A   Overcast
2:53 AM 50.0 °F - 46.4 °F 87% 29.88 in 10.0 mi WSW 5.8 mph - N/A   Overcast
3:13 AM 48.2 °F - 46.4 °F 93% 29.87 in 10.0 mi SW 5.8 mph - N/A   Overcast
3:33 AM 48.2 °F - 44.6 °F 87% 29.88 in 10.0 mi WSW 9.2 mph - N/A   Scattered Clouds
3:53 AM 46.4 °F 42.4 °F 44.6 °F 93% 29.88 in 10.0 mi WSW 8.1 mph - N/A   Clear
4:13 AM 46.4 °F 42.9 °F 44.6 °F 93% 29.88 in 10.0 mi WSW 6.9 mph - N/A   Clear
4:33 AM 46.4 °F 44.3 °F 42.8 °F 87% 29.88 in 7.0 mi WSW 4.6 mph - N/A   Clear
4:53 AM 44.6 °F 42.2 °F 42.8 °F 93% 29.88 in 7.0 mi SW 4.6 mph - N/A   Clear
5:14 AM 44.6 °F 40.7 °F 42.8 °F 93% 29.89 in 7.0 mi SW 6.9 mph - N/A   Clear
5:34 AM 44.6 °F 40.7 °F 42.8 °F 93% 29.89 in 7.0 mi SW 6.9 mph - N/A   Clear
5:54 AM 44.6 °F 42.2 °F 42.8 °F 93% 29.89 in 7.0 mi SW 4.6 mph - N/A   Clear
6:14 AM 44.6 °F 42.2 °F 42.8 °F 93% 29.89 in 7.0 mi SSW 4.6 mph - N/A   Clear
6:34 AM 42.8 °F - 42.8 °F 100% 29.89 in 7.0 mi Calm Calm - N/A   Clear
6:54 AM 42.8 °F 41.1 °F 42.8 °F 100% 29.89 in 7.0 mi SSW 3.5 mph - N/A   Clear
7:14 AM 42.8 °F 41.1 °F 41.0 °F 93% 29.89 in 7.0 mi SW 3.5 mph - N/A   Clear
7:34 AM 42.8 °F 39.3 °F 41.0 °F 93% 29.90 in 7.0 mi SSW 5.8 mph - N/A   Clear
7:54 AM 42.8 °F 39.3 °F 42.8 °F 100% 29.90 in 7.0 mi SSW 5.8 mph - N/A   Clear
8:15 AM 42.8 °F 40.1 °F 42.8 °F 100% 29.90 in 5.0 mi SSW 4.6 mph - N/A   Clear
8:35 AM 44.6 °F 42.2 °F 42.8 °F 93% 29.90 in 5.0 mi SSW 4.6 mph - N/A   Clear
8:55 AM 44.6 °F 42.2 °F 42.8 °F 93% 29.91 in 5.0 mi SSW 4.6 mph - N/A   Clear
9:15 AM 46.4 °F 42.9 °F 42.8 °F 87% 29.91 in 7.0 mi SW 6.9 mph - N/A   Clear
9:35 AM 46.4 °F 41.9 °F 44.6 °F 93% 29.91 in 7.0 mi SW 9.2 mph - N/A   Clear
9:55 AM 48.2 °F - 44.6 °F 87% 29.92 in 7.0 mi SW 6.9 mph - N/A   Clear
10:15 AM 51.8 °F - 46.4 °F 82% 29.92 in 10.0 mi WSW 10.4 mph - N/A   Clear
10:35 AM 53.6 °F - 46.4 °F 77% 29.92 in 10.0 mi WSW 9.2 mph - N/A   Clear
10:55 AM 55.4 °F - 46.4 °F 72% 29.92 in 10.0 mi SW 9.2 mph - N/A   Clear
11:15 AM 55.4 °F - 46.4 °F 72% 29.91 in 10.0 mi WSW 9.2 mph - N/A   Clear
11:35 AM 57.2 °F - 46.4 °F 67% 29.91 in 10.0 mi SW 11.5 mph - N/A   Clear
11:55 AM 57.2 °F - 46.4 °F 67% 29.91 in 10.0 mi SSW 11.5 mph - N/A   Scattered Clouds
12:16 PM 59.0 °F - 46.4 °F 63% 29.91 in 10.0 mi SW 12.7 mph 17.3 mph N/A   Scattered Clouds
12:36 PM 60.8 °F - 46.4 °F 59% 29.91 in 10.0 mi SW 10.4 mph 18.4 mph N/A   Scattered Clouds
12:56 PM 62.6 °F - 46.4 °F 55% 29.90 in 10.0 mi WSW 10.4 mph - N/A   Scattered Clouds
1:16 PM 62.6 °F - 46.4 °F 55% 29.89 in 10.0 mi WSW 12.7 mph - N/A   Clear
1:36 PM 64.4 °F - 44.6 °F 49% 29.88 in 10.0 mi SSW 12.7 mph 19.6 mph N/A   Clear
1:56 PM 64.4 °F - 44.6 °F 49% 29.87 in 10.0 mi SW 15.0 mph 20.7 mph N/A   Clear
2:16 PM 66.2 °F - 44.6 °F 46% 29.86 in 10.0 mi SW 13.8 mph 18.4 mph N/A   Clear
2:36 PM 66.2 °F - 44.6 °F 46% 29.85 in 10.0 mi SW 16.1 mph 21.9 mph N/A   Scattered Clouds
2:52 PM 66.2 °F - 44.6 °F 46% 29.85 in 10.0 mi SW 11.5 mph 21.9 mph N/A   Scattered Clouds
3:12 PM 64.4 °F - 42.8 °F 45% 29.85 in 10.0 mi West 13.8 mph 18.4 mph N/A   Scattered Clouds
3:32 PM 64.4 °F - 42.8 °F 45% 29.85 in 10.0 mi West 17.3 mph 26.5 mph N/A   Mostly Cloudy
3:52 PM 66.2 °F - 44.6 °F 46% 29.84 in 10.0 mi SW 13.8 mph 20.7 mph N/A   Mostly Cloudy
4:12 PM 66.2 °F - 41.0 °F 40% 29.85 in 10.0 mi WSW 16.1 mph 23.0 mph N/A   Scattered Clouds
4:32 PM 64.4 °F - 41.0 °F 42% 29.85 in 10.0 mi WSW 13.8 mph 24.2 mph N/A   Scattered Clouds
4:52 PM 66.2 °F - 39.2 °F 37% 29.85 in 10.0 mi WSW 17.3 mph 23.0 mph N/A   Scattered Clouds
5:12 PM 66.2 °F - 39.2 °F 37% 29.85 in 10.0 mi WSW 13.8 mph 23.0 mph N/A   Scattered Clouds
5:32 PM 64.4 °F - 39.2 °F 40% 29.85 in 10.0 mi West 12.7 mph 20.7 mph N/A   Scattered Clouds
5:52 PM 64.4 °F - 41.0 °F 42% 29.85 in 10.0 mi West 11.5 mph 16.1 mph N/A   Scattered Clouds
6:12 PM 62.6 °F - 42.8 °F 48% 29.85 in 10.0 mi WSW 8.1 mph - N/A   Scattered Clouds
6:33 PM 60.8 °F - 42.8 °F 52% 29.85 in 10.0 mi WSW 4.6 mph - N/A   Clear
6:53 PM 57.2 °F - 42.8 °F 59% 29.85 in 10.0 mi SW 3.5 mph - N/A   Clear
7:13 PM 55.4 °F - 42.8 °F 63% 29.86 in 10.0 mi SW 3.5 mph - N/A   Clear
7:33 PM 55.4 °F - 42.8 °F 63% 29.87 in 10.0 mi SW 3.5 mph - N/A   Clear
7:53 PM 53.6 °F - 42.8 °F 67% 29.87 in 10.0 mi SW 3.5 mph - N/A   Clear
8:13 PM 53.6 °F - 44.6 °F 72% 29.88 in 10.0 mi SW 4.6 mph - N/A   Scattered Clouds
8:33 PM 51.8 °F - 42.8 °F 71% 29.88 in 10.0 mi WSW 4.6 mph - N/A   Scattered Clouds
8:53 PM 51.8 °F - 44.6 °F 76% 29.88 in 10.0 mi WSW 4.6 mph - N/A   Clear
9:14 PM 53.6 °F - 44.6 °F 72% 29.88 in 10.0 mi West 3.5 mph - N/A   Clear
9:34 PM 51.8 °F - 44.6 °F 76% 29.89 in 10.0 mi West 5.8 mph - N/A   Clear
9:54 PM 51.8 °F - 44.6 °F 76% 29.90 in 10.0 mi WNW 5.8 mph - N/A   Clear
10:14 PM 51.8 °F - 44.6 °F 76% 29.91 in 10.0 mi WNW 8.1 mph - N/A   Clear
10:34 PM 51.8 °F - 46.4 °F 82% 29.91 in 10.0 mi WNW 8.1 mph - N/A   Clear
10:54 PM 51.8 °F - 46.4 °F 82% 29.91 in 10.0 mi WNW 5.8 mph - N/A   Clear
11:14 PM 48.2 °F - 44.6 °F 87% 29.91 in 7.0 mi West 4.6 mph - N/A   Clear
11:34 PM 48.2 °F - 44.6 °F 87% 29.91 in 10.0 mi West 5.8 mph - N/A   Clear
11:54 PM 48.2 °F - 44.6 °F 87% 29.91 in 7.0 mi West 5.8 mph - N/A   Scattered Clouds